Hourly Data Report for September 03, 2017

All times are specified in Local Standard Time (LST). Add 1 hour to adjust for Daylight Saving Time where and when it is observed.

POND INLET A
NUNAVUT

72°41'22.000" N
77°58'08.000" W
61.60 m
2403206
71095
YIO

Download Data

Hourly Data (September 2017)
Hourly Data Report for September 3, 2017
Temp Definition
°C
Dew Point Temp Definition
°C
Rel Hum Definition
%
Wind Dir Definition
10's deg

Wind Spd Definition
km/h
Visibility Definition
km
Stn Press Definition
kPa
Hmdx Definition


Wind Chill Definition


Weather Definition


TIME
00:00 Legend Double Dagger -1.1 -3.2 86 18 18 16.1 100.31   -6 LegendNANA
01:00 Legend Double Dagger -1.7 -3.9 85 17 15 16.1 100.30   -7 LegendNANA
02:00 Legend Double Dagger -1.9 -3.9 86 16 17 16.1 100.31   -7 LegendNANA
03:00 Legend Double Dagger -2.2 -4.2 86 16 17 16.1 100.31   -8 LegendNANA
04:00 Legend Double Dagger -2.5 -4.4 87 16 15 16.1 100.31   -7 LegendNANA
05:00 Legend Double Dagger -1.6 -3.5 87 17 17 16.1 100.30   -7 LegendNANA
06:00 Legend Double Dagger -1.0 -3.4 84 16 17 16.1 100.30   -6 LegendNANA
07:00 Legend Double Dagger 2.0 -1.5 78 17 13 16.1 100.31     LegendNANA
08:00 Legend Double Dagger 1.8 -1.6 78 18 11 16.1 100.33     LegendNANA
09:00 Legend Double Dagger 2.3 -1.7 75 21 8 16.1 100.32     LegendNANA
10:00 Legend Double Dagger 2.9 -1.4 73 24 8 16.1 100.28     LegendNANA
11:00 Legend Double Dagger 3.3 -1.7 70 27 8 16.1 100.27     LegendNANA
12:00 Legend Double Dagger 2.9 -1.5 73 27 8 16.1 100.25     LegendNANA
13:00 Legend Double Dagger 3.0 -1.6 72 26 8 16.1 100.24     LegendNANA
14:00 Legend Double Dagger 3.1 -1.5 72 27 8 16.1 100.26     LegendNANA
15:00 Legend Double Dagger 2.9 -2.1 70 23 8 16.1 100.28     LegendNANA
16:00 Legend Double Dagger 2.8 -2.1 70 25 5 16.1 100.28     LegendNANA
17:00 Legend Double Dagger 2.4 -1.6 75 21 4 16.1 100.28     LegendNANA
18:00 Legend Double Dagger 2.1 -1.2 79 21 5 16.1 100.26     LegendNANA
19:00 Legend Double Dagger 1.6 -1.8 78 20 5 16.1 100.25     LegendNANA
20:00 Legend Double Dagger 1.3 -2.3 77 20 5 16.1 100.26     LegendNANA
21:00 Legend Double Dagger -0.3 -3.0 82 16 9 16.1 100.25   -3 LegendNANA
22:00 Legend Double Dagger -1.3 -3.7 84 16 13 16.1 100.24   -6 LegendNANA
23:00 Legend Double Dagger -1.0 -2.7 88 18 11 16.1 100.26   -5 LegendNANA

Notes on Data Quality.

Legend

  • E = Estimated
  • M = Missing
  • NA = Not Available
  • ‡ = Partner data that is not subject to review by the National Climate Archives
Date modified: